Location: Newark
(31.5350°N, 35.0986°E)
Time: 14:43:20
(UTC+00:00)

Explorer 7 - Pass Details

Date: 27 October 2019
Orbit: 485 x 680 km, 50.3° (Epoch: 17 November)

Event Time Altitude Azimuth Distance (km) Brightness Sun altitude
Rises 07:17:00 0° 282° (WNW) 2,597 9.9 36.4°
Reaches altitude 10° 07:21:11 10° 326° (NW) 1,682 8.9 36.9°
Maximum altitude 07:21:47 10° 335° (NNW) 1,660 8.9 37.0°
Drops below altitude 10° 07:22:24 10° 344° (NNW) 1,676 8.9 37.1°
Sets 07:26:31 0° 29° (NNE) 2,547 10.0 37.6°
